Juliana Airport, Saint Maartin

4:32 AM AST on September 26, 2016 (GMT -0400)
Juliana Airport

Weather History for 78866 - November, 2011

Change the Weather History Date:

Tuesday, November 8, 2011

  Actual Average Record
Temperature  
Mean Temperature 82 °F -  
Max Temperature 87 °F - - ()
Min Temperature 77 °F - - ()
Cooling Degree Days 17    
Growing Degree Days 32 (Base 50)    
Moisture  
Dew Point 76 °F    
Average Humidity 78    
Maximum Humidity 89    
Minimum Humidity 66    
Precipitation  
Precipitation 0.43 in - - ()
Sea Level Pressure  
Sea Level Pressure 29.86 in    
Wind  
Wind Speed 7 mph ()    
Max Wind Speed 13 mph    
Max Gust Speed -    
Visibility 7.8 miles    
Events      
T = Trace of Precipitation, MM = Missing Value Source: Averaged Metar Reports

Daily Weather History Graph

Daily Weather History Graph

Search for Another Location

Airport or City:

Trip Planner

Search our weather history database for the weather conditions in past years. The results will help you decide how hot, cold, wet, or windy it might be!

Date:

Astronomy

Nov. 08, 2011 Rise Set
Actual Time 6:14 AM AST 5:37 PM AST
Civil Twilight 5:51 AM AST 6:00 PM AST
Nautical Twilight 5:25 AM AST 6:26 PM AST
Astronomical Twilight 4:59 AM AST 6:52 PM AST
Moon 4:08 PM AST (11/8) 4:19 AM AST (11/8)
Length of Visible Light 12h 08m
Length of Day
11h 22m
Waxing Gibbous, 96% of the Moon is Illuminated
Nov 8
Waxing Gibbous
Nov 10
Full
Nov 18
Last Quarter
Nov 25
New
Dec 2
First Quarter

Hourly Weather History & Observations

Time (AST) Temp. Heat Index Dew Point Humidity Pressure Visibility Wind Dir Wind Speed Gust Speed Precip Events Conditions
12:00 AM 80.6 °F 86.2 °F 75.2 °F 84% 29.89 in 6.2 mi SE 9.2 mph - N/A   Partly Cloudy
1:00 AM 80.6 °F 86.2 °F 75.2 °F 84% 29.86 in 6.2 mi SSE 8.1 mph - N/A   Partly Cloudy
2:00 AM 80.6 °F 86.2 °F 75.2 °F 84% 29.83 in 6.2 mi SE 8.1 mph - N/A   Partly Cloudy
3:00 AM 80.6 °F 86.2 °F 75.2 °F 84% 29.83 in 6.2 mi SE 5.8 mph - N/A   Partly Cloudy
4:00 AM 80.6 °F 86.2 °F 75.2 °F 84% 29.83 in 6.2 mi Variable 3.5 mph - N/A   Partly Cloudy
5:00 AM 80.6 °F 86.2 °F 75.2 °F 84% 29.83 in 6.2 mi East 5.8 mph - N/A   Scattered Clouds
6:00 AM 78.8 °F - 75.2 °F 89% 29.83 in 6.2 mi East 8.1 mph - N/A   Scattered Clouds
7:00 AM 80.6 °F 86.2 °F 75.2 °F 84% 29.86 in 6.2 mi SE 10.4 mph - N/A   Partly Cloudy
8:00 AM 83 °F - 75 °F 71% 29.88 in 28 mi SE 8.1 mph - -   Partly Cloudy
8:00 AM 82.4 °F 89.5 °F 75.2 °F 79% 29.86 in 6.2 mi SE 8.1 mph - N/A   Partly Cloudy
9:00 AM 86.0 °F 96.9 °F 77.0 °F 74% 29.86 in 6.2 mi Variable 2.3 mph - N/A   Scattered Clouds
10:00 AM 84.2 °F 94.1 °F 77.0 °F 79% 29.89 in 6.2 mi Variable 2.3 mph - N/A   Partly Cloudy
11:00 AM 85 °F - 77 °F 70% 29.89 in 19 mi SSE 5.8 mph - -   Partly Cloudy
11:00 AM 86.0 °F 96.9 °F 77.0 °F 74% 29.89 in 6.2 mi SSE 5.8 mph - N/A   Partly Cloudy
12:00 PM 86.0 °F 96.9 °F 77.0 °F 74% 29.86 in 6.2 mi SE 6.9 mph - N/A   Partly Cloudy
1:00 PM 86.0 °F 95.1 °F 75.2 °F 70% 29.83 in 6.2 mi SSE 5.8 mph - N/A   Scattered Clouds
2:00 PM 86 °F - 76 °F 66% 29.83 in 16 mi SSE 6.9 mph - -   Scattered Clouds
2:00 PM 86.0 °F 96.9 °F 77.0 °F 74% 29.83 in 6.2 mi SE 6.9 mph - N/A   Partly Cloudy
3:00 PM 86.0 °F 96.9 °F 77.0 °F 74% 29.80 in 6.2 mi SE 8.1 mph - N/A   Scattered Clouds
4:00 PM 84.2 °F 94.1 °F 77.0 °F 79% 29.80 in 6.2 mi SE 10.4 mph - N/A   Scattered Clouds
5:00 PM 84 °F - 76 °F 70% 29.86 in 16 mi ESE 8.1 mph - -   Partly Cloudy
5:00 PM 84.2 °F 92.3 °F 75.2 °F 74% 29.86 in 6.2 mi ESE 8.1 mph - N/A   Scattered Clouds
6:00 PM 82.4 °F 89.5 °F 75.2 °F 79% 29.86 in 6.2 mi ESE 9.2 mph - N/A   Scattered Clouds
7:00 PM 82.4 °F 89.5 °F 75.2 °F 79% 29.86 in 6.2 mi ESE 8.1 mph - N/A   Scattered Clouds
8:00 PM 82 °F - 74 °F 72% 29.89 in 9 mi East 12.7 mph - -   Partly Cloudy
8:00 PM 82.4 °F 89.5 °F 75.2 °F 79% 29.89 in 6.2 mi East 12.7 mph - N/A   Scattered Clouds
9:00 PM 82.4 °F 89.5 °F 75.2 °F 79% 29.89 in 6.2 mi ESE 9.2 mph - N/A   Scattered Clouds
10:00 PM 82.4 °F 89.5 °F 75.2 °F 79% 29.89 in 6.2 mi East 8.1 mph - N/A   Partly Cloudy
11:00 PM 82 °F - 75 °F 75% 29.90 in 16 mi ESE 5.8 mph - -   Partly Cloudy
11:00 PM 82.4 °F 89.5 °F 75.2 °F 79% 29.89 in 6.2 mi ESE 5.8 mph - N/A   Scattered Clouds